(234448) = 2001 SR146

Discovered at Socorro on 2001-09-16 by LINEAR.

Orbit

Orbit type: Main Belt

Note: WebGL enabled browser required.

epoch2024-03-31.0
epoch JD2460400.5
perihelion date2023-01-22.41128
perihelion JD2459966.91128
argument of perihelion (°)258.03498
ascending node (°)111.92048
inclination (°)3.27987
eccentricity0.1460373
perihelion distance (AU)1.9855702
Tisserand w.r.t. Jupiter3.6
ΔV w.r.t. Earth (km/sec)8.8
semimajor axis (AU)2.3251253
mean anomaly (°)120.53475
mean daily motion (°/day)0.27799330
aphelion distance (AU)2.665
period (years)3.55
P-vector [x]0.98345586
P-vector [y]0.18033150
P-vector [z]0.01717911
Q-vector [x]-0.17319763
Q-vector [y]0.90826880
Q-vector [z]0.38085480
absolute magnitude17.15
phase slope0.15
uncertainty0
referenceMPEC 2024-C128
observations used455
oppositions16
arc length (days)8203
first opposition used2001
last opposition used2024
residual rms (arc-secs)0.78
perturbers coarse indicatorM-v
perturbers precise indicator003Ek
first observation date used2001-08-27.0
last observation date used2024-02-11.0
computer nameMPCLINUX
JD of orbit computation2456789.377233
perihelion JD uncertainty (days)9.0867E-05
argument of perihelion uncertainty (°)1.4560E-04
ascending node uncertainty (°)1.4429E-04
inclination uncertainty (°)5.4532E-06
eccentricity uncertainty 7.6078E-08
perihelion distance uncertainty (AU)1.7742E-07
Minimum Orbit Intersection Distances (in AU)
for orbit epoch: 2460200.5, reference: E2024-CC8
Mercury1.62728
Venus1.2595
Earth0.98714
Mars0.57326
Jupiter2.78931
Saturn6.69703
Uranus15.8077
Neptune27.8079

Observations

465 total observations over interval: 2001 08 27.34205 – 2024 02 11.518170
These data are available for download (format description).

Date (UT) J2000 RA J2000 Dec Magn Location Ref
2001 08 27.34205 00 49 10.68 -00 24 37.2 19.3 R 699 – Lowell Observatory-LONEOS MPS 38225
2001 08 27.36165 00 49 10.44 -00 24 40.5   699 – Lowell Observatory-LONEOS MPS 38225
2001 08 27.38126 00 49 10.26 -00 24 46.6   699 – Lowell Observatory-LONEOS MPS 38225
2001 08 27.40091 00 49 09.93 -00 24 51.7   699 – Lowell Observatory-LONEOS MPS 38225
2001 09 16.39450 00 39 58.95 -02 17 24.6 19.3   704 – Lincoln Laboratory ETS, New Mexico MPS 36679
2001 09 16.41002 00 39 58.25 -02 17 31.2 19.7   704 – Lincoln Laboratory ETS, New Mexico MPS 36679
2001 09 16.45078 00 39 56.39 -02 17 47.0 19.6   704 – Lincoln Laboratory ETS, New Mexico MPS 36679
2001 09 16.47052 00 39 55.50 -02 17 55.6 19.9   704 – Lincoln Laboratory ETS, New Mexico MPS 36679
2001 09 20.24637 00 37 04.82 -02 43 07.4 18.5   704 – Lincoln Laboratory ETS, New Mexico MPS 36679
2001 09 20.26124 00 37 04.10 -02 43 13.6 18.9   704 – Lincoln Laboratory ETS, New Mexico MPS 36679
2001 09 20.27647 00 37 03.31 -02 43 18.7 18.5   704 – Lincoln Laboratory ETS, New Mexico MPS 36679
2001 09 20.29081 00 37 02.67 -02 43 25.4 18.9   704 – Lincoln Laboratory ETS, New Mexico MPS 36679
2001 09 21.25711 00 36 16.62 -02 49 53.2 18.5   704 – Lincoln Laboratory ETS, New Mexico MPS 38225
2001 09 21.27150 00 36 15.89 -02 49 59.1 18.4   704 – Lincoln Laboratory ETS, New Mexico MPS 38225
2001 09 21.28661 00 36 15.12 -02 50 05.2 18.8   704 – Lincoln Laboratory ETS, New Mexico MPS 38225
2001 09 21.30117 00 36 14.35 -02 50 10.8 18.6   704 – Lincoln Laboratory ETS, New Mexico MPS 38225
2001 09 24.31446 00 33 46.18 -03 10 10.6 18.6   644 – Palomar Mountain/NEAT MPS 40571
2001 09 24.33525 00 33 45.09 -03 10 19.0 18.6   644 – Palomar Mountain/NEAT MPS 40571
2001 09 24.35635 00 33 43.96 -03 10 27.0 18.9   644 – Palomar Mountain/NEAT MPS 40571
2001 10 08.33242 00 21 53.85 -04 32 39.8 19.3   644 – Palomar Mountain/NEAT MPS 38225
2001 10 08.35270 00 21 52.80 -04 32 45.7 19.0   644 – Palomar Mountain/NEAT MPS 38225
2001 10 08.37290 00 21 51.76 -04 32 51.9 19.8   644 – Palomar Mountain/NEAT MPS 38225
2001 10 11.27529 00 19 33.76 -04 46 10.5 19.7   704 – Lincoln Laboratory ETS, New Mexico MPS 43947
2001 10 11.30784 00 19 32.61 -04 46 18.4 19.9   704 – Lincoln Laboratory ETS, New Mexico MPS 43947
2001 10 11.32428 00 19 32.01 -04 46 21.3 18.9   704 – Lincoln Laboratory ETS, New Mexico MPS 43947
2001 10 16.22543 00 15 59.77 -05 04 42.6 19.1   644 – Palomar Mountain/NEAT MPS 39382
2001 10 16.24925 00 15 58.74 -05 04 47.1 19.0   644 – Palomar Mountain/NEAT MPS 39382
2001 10 16.26997 00 15 57.86 -05 04 51.0 19.3   644 – Palomar Mountain/NEAT MPS 39382
2001 10 19.18686 00 14 06.56 -05 13 05.5 19.0 R 699 – Lowell Observatory-LONEOS MPS 40571
2001 10 19.21039 00 14 05.62 -05 13 09.4   699 – Lowell Observatory-LONEOS MPS 40571
2001 10 19.23380 00 14 04.75 -05 13 12.3   699 – Lowell Observatory-LONEOS MPS 40571
2001 10 19.25712 00 14 03.74 -05 13 17.3   699 – Lowell Observatory-LONEOS MPS 40571
2001 10 24.21931 00 11 25.33 -05 22 20.9 19.3   644 – Palomar Mountain/NEAT MPS 40571
2001 10 24.24055 00 11 24.66 -05 22 22.4 19.4   644 – Palomar Mountain/NEAT MPS 40571
2001 10 24.26166 00 11 24.03 -05 22 24.1 19.7   644 – Palomar Mountain/NEAT MPS 40571
2003 03 30.244540 10 27 21.734 +13 57 39.56 21.25 V 645 – Apache Point-Sloan Digital Sky Survey MPS 175084
2003 03 30.248012 10 27 21.607 +13 57 39.98 22.02   645 – Apache Point-Sloan Digital Sky Survey MPS 175084
2005 12 28.12645 06 11 21.34 +21 37 52.5 20.0 V 691 – Steward Observatory, Kitt Peak-Spacewatch MPS 175084
2005 12 28.14381 06 11 20.12 +21 37 56.0 19.7 V 691 – Steward Observatory, Kitt Peak-Spacewatch MPS 175084
2005 12 28.16124 06 11 18.89 +21 37 57.7 19.9 V 691 – Steward Observatory, Kitt Peak-Spacewatch MPS 175084
2007 03 13.37741 14 02 58.84 -07 23 53.4 20.5 V G96 – Mt. Lemmon Survey MPS 202905
2007 03 13.38502 14 02 58.56 -07 23 51.5 20.8 V G96 – Mt. Lemmon Survey MPS 202905
2007 03 13.39266 14 02 58.38 -07 23 50.0 21.4 V G96 – Mt. Lemmon Survey MPS 202905
2007 03 13.40027 14 02 58.16 -07 23 48.3 21.6 V G96 – Mt. Lemmon Survey MPS 202905
2008 08 11.88971 23 28 42.38 -07 54 55.0 19.1 V A50 – Andrushivka Astronomical Observatory MPS 272239
2008 08 11.89134 23 28 42.27 -07 54 55.7 19.1 V A50 – Andrushivka Astronomical Observatory MPS 272239
2008 08 11.89294 23 28 42.31 -07 54 55.8 17.9 V A50 – Andrushivka Astronomical Observatory MPS 272239
2008 08 11.91873 23 28 41.67 -07 55 04.1 19.7 V A50 – Andrushivka Astronomical Observatory MPS 272239
2008 08 23.33181 23 22 58.42 -09 06 06.6 19.0   704 – Lincoln Laboratory ETS, New Mexico MPS 254403
2008 08 23.34463 23 22 57.84 -09 06 12.0 19.3   704 – Lincoln Laboratory ETS, New Mexico MPS 254403
2008 08 23.35735 23 22 57.26 -09 06 17.7 19.3   704 – Lincoln Laboratory ETS, New Mexico MPS 254403
2008 09 05.13846 23 13 12.70 -10 38 00.7 19.5 R 735 – George Observatory, Needville MPS 255761
2008 09 05.16105 23 13 11.51 -10 38 11.6 18.9 R 735 – George Observatory, Needville MPS 255761
2008 09 05.17920 23 13 10.55 -10 38 18.1 19.2 R 735 – George Observatory, Needville MPS 255761
2008 09 05.18675 23 13 10.12 -10 38 21.7 19.4 R 735 – George Observatory, Needville MPS 255761
2008 09 07.32326 23 11 21.30 -10 53 28.1 18.7 V 703 – Catalina Sky Survey MPS 255761
2008 09 07.33067 23 11 20.94 -10 53 30.5 19.0 V 703 – Catalina Sky Survey MPS 255761
2008 09 07.33811 23 11 20.54 -10 53 33.7 18.9 V 703 – Catalina Sky Survey MPS 255761
2008 09 07.34551 23 11 20.11 -10 53 36.8 18.8 V 703 – Catalina Sky Survey MPS 255761
2008 09 23.17551 22 58 30.93 -12 27 28.5 19.3   704 – Lincoln Laboratory ETS, New Mexico MPS 264531
2008 09 23.18785 22 58 30.43 -12 27 31.2 19.9   704 – Lincoln Laboratory ETS, New Mexico MPS 264531
2008 09 23.20007 22 58 29.93 -12 27 35.1 20.2   704 – Lincoln Laboratory ETS, New Mexico MPS 264531
2008 09 23.21234 22 58 29.31 -12 27 38.4 20.5   704 – Lincoln Laboratory ETS, New Mexico MPS 264531
2008 09 23.22466 22 58 28.62 -12 27 41.5 20.3   704 – Lincoln Laboratory ETS, New Mexico MPS 264531
2008 10 01.26664 22 53 30.55 -12 56 39.9 19.8 V 703 – Catalina Sky Survey MPS 257767
2008 10 01.27215 22 53 30.30 -12 56 42.1 19.5 V 703 – Catalina Sky Survey MPS 257767
2008 10 01.27762 22 53 30.19 -12 56 42.1 19.8 V 703 – Catalina Sky Survey MPS 257767
2008 10 01.28307 22 53 29.97 -12 56 42.6 19.3 V 703 – Catalina Sky Survey MPS 257767
2010 02 14.36362 10 17 37.86 +14 02 18.2 20.1 V G96 – Mt. Lemmon Survey MPS 312966
2010 02 14.37072 10 17 37.42 +14 02 21.1 20.5 V G96 – Mt. Lemmon Survey MPS 312966
2010 02 14.37789 10 17 36.99 +14 02 23.8 20.4 V G96 – Mt. Lemmon Survey MPS 312966
2010 02 14.38505 10 17 36.56 +14 02 26.8 20.4 V G96 – Mt. Lemmon Survey MPS 312966
2010 02 16.32464 10 15 41.54 +14 15 28.4 20.3 V G96 – Mt. Lemmon Survey MPS 312966
2010 02 16.33119 10 15 41.11 +14 15 31.1 20.1 V G96 – Mt. Lemmon Survey MPS 312966
2010 02 16.33785 10 15 40.71 +14 15 33.6 20.4 V G96 – Mt. Lemmon Survey MPS 312966
2010 02 16.34450 10 15 40.28 +14 15 36.6 20.3 V G96 – Mt. Lemmon Survey MPS 312966
2010 03 04.20967 10 00 15.07 +15 52 09.3 20.7 V 691 – Steward Observatory, Kitt Peak-Spacewatch MPS 316662
2010 03 04.22602 10 00 14.14 +15 52 15.0 20.5 V 691 – Steward Observatory, Kitt Peak-Spacewatch MPS 316662
2010 03 04.24239 10 00 13.23 +15 52 19.7 20.7 V 691 – Steward Observatory, Kitt Peak-Spacewatch MPS 316662
2010 03 18.23294 09 49 28.59 +16 50 35.4 20.9 V G96 – Mt. Lemmon Survey MPS 317823
2010 03 18.23773 09 49 28.38 +16 50 36.0 20.8 V G96 – Mt. Lemmon Survey MPS 317823
2010 03 18.24250 09 49 28.20 +16 50 37.3 20.5 V G96 – Mt. Lemmon Survey MPS 317823
2010 03 18.24730 09 49 28.02 +16 50 37.8 21.0 V G96 – Mt. Lemmon Survey MPS 317823
2010 03 18.25089 09 49 27.91 +16 50 38.4 21.3 V G96 – Mt. Lemmon Survey MPS 317823
2010 03 18.25618 09 49 27.73 +16 50 39.0 20.9 V G96 – Mt. Lemmon Survey MPS 317823
2010 03 18.26153 09 49 27.48 +16 50 40.2 20.8 V G96 – Mt. Lemmon Survey MPS 317823
2010 03 18.26690 09 49 27.30 +16 50 41.3 20.9 V G96 – Mt. Lemmon Survey MPS 317823
2011 06 05.33537 16 49 31.94 -18 56 27.5 19.8 V G96 – Mt. Lemmon Survey MPS 385298
2011 06 05.34238 16 49 31.47 -18 56 27.3 19.5 V G96 – Mt. Lemmon Survey MPS 385298
